Time,TemperatureF,DewpointF,PressureIn,WindDirection,WindDirectionDegrees,WindSpeedMPH,WindSpeedGustMPH,Humidity,HourlyPrecipIn,Conditions,Clouds,dailyrainin,SoftwareType,DateUTC
2013-10-03 00:01:00,64.2,62.7,30.09,SW,229,0.0,0.0,95,0.00,,,0.00,VWS V14.00,2013-10-03 04:01:00,
2013-10-03 00:02:00,64.2,63.0,30.09,SW,229,0.0,0.0,96,0.00,,,0.00,VWS V14.00,2013-10-03 04:02:00,
2013-10-03 00:03:00,64.1,62.9,30.09,SW,229,0.0,0.0,96,0.00,,,0.00,VWS V14.00,2013-10-03 04:03:00,
2013-10-03 00:04:00,64.2,63.0,30.09,SW,229,0.0,0.0,96,0.00,,,0.00,VWS V14.00,2013-10-03 04:04:00,
2013-10-03 00:09:00,64.1,62.9,30.09,SW,229,0.0,0.0,96,0.00,,,0.00,VWS V14.00,2013-10-03 04:09:00,
2013-10-03 00:10:00,64.1,62.9,30.09,SW,229,0.0,0.0,96,0.00,,,0.00,VWS V14.00,2013-10-03 04:10:00,
2013-10-03 00:15:00,64.1,62.9,30.09,SW,229,0.0,0.0,96,0.00,,,0.00,VWS V14.00,2013-10-03 04:15:00,
2013-10-03 00:21:00,64.1,62.9,30.09,SW,229,0.0,0.0,96,0.00,,,0.00,VWS V14.00,2013-10-03 04:21:00,
2013-10-03 00:26:00,64.1,62.9,30.09,SW,229,0.0,0.0,96,0.00,,,0.00,VWS V14.00,2013-10-03 04:26:00,
2013-10-03 00:31:00,64.0,62.8,30.09,SW,229,0.0,0.0,96,0.00,,,0.00,VWS V14.00,2013-10-03 04:31:00,
2013-10-03 00:36:00,64.0,62.8,30.08,SW,229,0.0,0.0,96,0.00,,,0.00,VWS V14.00,2013-10-03 04:36:00,
2013-10-03 00:41:00,63.8,62.6,30.08,SW,229,0.0,0.0,96,0.00,,,0.00,VWS V14.00,2013-10-03 04:41:00,
2013-10-03 00:46:00,63.8,62.6,30.08,SW,229,0.0,0.0,96,0.00,,,0.00,VWS V14.00,2013-10-03 04:46:00,
2013-10-03 00:51:00,63.7,62.5,30.08,SW,229,0.0,0.0,96,0.00,,,0.00,VWS V14.00,2013-10-03 04:51:00,
2013-10-03 00:56:00,63.7,62.5,30.08,SW,229,0.0,0.0,96,0.00,,,0.00,VWS V14.00,2013-10-03 04:56:00,
2013-10-03 01:01:00,63.7,62.5,30.08,SW,229,0.0,0.0,96,0.00,,,0.00,VWS V14.00,2013-10-03 05:01:00,
2013-10-03 01:06:00,63.6,62.4,30.08,SW,229,0.0,0.0,96,0.00,,,0.00,VWS V14.00,2013-10-03 05:06:00,
2013-10-03 01:11:00,63.5,62.3,30.08,SW,229,0.0,0.0,96,0.00,,,0.00,VWS V14.00,2013-10-03 05:11:00,
2013-10-03 01:16:00,63.4,62.2,30.08,SW,229,0.0,0.0,96,0.00,,,0.00,VWS V14.00,2013-10-03 05:16:00,
2013-10-03 01:22:00,63.3,62.1,30.08,SW,229,0.0,0.0,96,0.00,,,0.00,VWS V14.00,2013-10-03 05:22:00,
2013-10-03 01:27:00,63.2,62.0,30.08,SW,229,0.0,0.0,96,0.00,,,0.00,VWS V14.00,2013-10-03 05:27:00,
2013-10-03 01:32:00,63.2,62.0,30.08,SW,229,0.0,0.0,96,0.00,,,0.00,VWS V14.00,2013-10-03 05:32:00,
2013-10-03 06:19:00,61.3,60.7,30.07,SW,229,0.0,0.0,98,0.00,,,0.00,VWS V14.00,2013-10-03 10:19:00,
2013-10-03 06:24:00,61.2,60.6,30.07,SW,229,0.0,0.0,98,0.00,,,0.00,VWS V14.00,2013-10-03 10:24:00,
2013-10-03 06:29:00,61.3,60.7,30.08,SW,229,0.0,0.0,98,0.00,,,0.00,VWS V14.00,2013-10-03 10:29:00,
2013-10-03 06:34:00,61.3,60.7,30.08,SW,229,0.0,0.0,98,0.00,,,0.00,VWS V14.00,2013-10-03 10:34:00,
2013-10-03 06:39:00,61.3,61.0,30.08,SW,229,0.0,0.0,99,0.00,,,0.00,VWS V14.00,2013-10-03 10:39:00,
2013-10-03 07:40:00,60.9,60.3,30.09,North,0,0.0,0.0,98,0.00,,,0.00,VWS V14.00,2013-10-03 11:40:00,
2013-10-03 07:55:00,61.0,60.7,30.09,SW,229,0.0,0.0,99,0.00,,,0.00,VWS V14.00,2013-10-03 11:55:00,
2013-10-03 08:00:00,61.2,60.9,30.09,SW,229,0.0,0.0,99,0.00,,,0.00,VWS V14.00,2013-10-03 12:00:00,
2013-10-03 08:05:00,61.4,61.1,30.10,SW,229,0.0,0.0,99,0.00,,,0.00,VWS V14.00,2013-10-03 12:05:00,
2013-10-03 08:11:00,61.6,61.3,30.10,SW,229,0.0,0.0,99,0.00,,,0.00,VWS V14.00,2013-10-03 12:11:00,
2013-10-03 08:16:00,62.1,61.8,30.10,SW,229,0.0,0.0,99,0.00,,,0.00,VWS V14.00,2013-10-03 12:16:00,
2013-10-03 08:21:00,62.9,62.6,30.10,SW,229,0.0,0.0,99,0.00,,,0.00,VWS V14.00,2013-10-03 12:21:00,
2013-10-03 08:26:00,63.7,63.4,30.10,SW,229,0.0,0.0,99,0.00,,,0.00,VWS V14.00,2013-10-03 12:26:00,
2013-10-03 08:31:00,64.4,64.1,30.10,SW,229,0.0,0.0,99,0.00,,,0.00,VWS V14.00,2013-10-03 12:31:00,
2013-10-03 08:36:00,65.4,65.4,30.10,SW,229,0.0,0.0,100,0.00,,,0.00,VWS V14.00,2013-10-03 12:36:00,
2013-10-03 08:41:00,66.4,66.4,30.10,SW,229,0.0,2.0,100,0.00,,,0.00,VWS V14.00,2013-10-03 12:41:00,
2013-10-03 08:46:00,67.0,67.0,30.10,SW,229,0.0,1.0,100,0.00,,,0.00,VWS V14.00,2013-10-03 12:46:00,
2013-10-03 08:51:00,67.7,67.7,30.10,SW,229,0.0,0.0,100,0.00,,,0.00,VWS V14.00,2013-10-03 12:51:00,
2013-10-03 08:56:00,68.1,67.8,30.10,East,92,0.0,2.0,99,0.00,,,0.00,VWS V14.00,2013-10-03 12:56:00,
2013-10-03 09:01:00,68.4,68.1,30.10,East,92,0.0,1.0,99,0.00,,,0.00,VWS V14.00,2013-10-03 13:01:00,
2013-10-03 09:06:00,69.0,68.7,30.10,East,92,0.0,2.0,99,0.00,,,0.00,VWS V14.00,2013-10-03 13:06:00,
2013-10-03 09:11:00,69.7,69.4,30.10,East,92,0.0,0.0,99,0.00,,,0.00,VWS V14.00,2013-10-03 13:11:00,
2013-10-03 09:17:00,70.1,69.5,30.11,East,92,0.0,0.0,98,0.00,,,0.00,VWS V14.00,2013-10-03 13:17:00,
2013-10-03 09:22:00,70.8,69.9,30.11,East,92,0.0,0.0,97,0.00,,,0.00,VWS V14.00,2013-10-03 13:22:00,
2013-10-03 09:27:00,71.3,69.8,30.11,East,92,0.0,2.0,95,0.00,,,0.00,VWS V14.00,2013-10-03 13:27:00,
2013-10-03 09:32:00,71.6,70.1,30.11,East,92,0.0,0.0,95,0.00,,,0.00,VWS V14.00,2013-10-03 13:32:00,
2013-10-03 09:37:00,72.3,70.5,30.11,East,92,0.0,1.0,94,0.00,,,0.00,VWS V14.00,2013-10-03 13:37:00,
2013-10-03 09:42:00,72.9,70.4,30.11,East,92,0.0,2.0,92,0.00,,,0.00,VWS V14.00,2013-10-03 13:42:00,
2013-10-03 09:47:00,73.5,71.0,30.11,ENE,73,1.0,3.0,92,0.00,,,0.00,VWS V14.00,2013-10-03 13:47:00,
2013-10-03 09:52:00,73.9,70.8,30.11,ENE,73,1.0,1.0,90,0.00,,,0.00,VWS V14.00,2013-10-03 13:52:00,
2013-10-03 09:57:00,74.2,70.8,30.11,ENE,72,2.0,3.0,89,0.00,,,0.00,VWS V14.00,2013-10-03 13:57:00,
2013-10-03 10:02:00,74.7,71.2,30.11,ENE,72,0.0,0.0,89,0.00,,,0.00,VWS V14.00,2013-10-03 14:02:00,
2013-10-03 10:07:00,75.1,71.3,30.11,ENE,72,3.0,3.0,88,0.00,,,0.00,VWS V14.00,2013-10-03 14:07:00,
2013-10-03 10:13:00,75.5,71.7,30.11,NE,54,1.0,1.0,88,0.00,,,0.00,VWS V14.00,2013-10-03 14:13:00,
2013-10-03 10:18:00,75.9,71.8,30.11,NE,54,0.0,3.0,87,0.00,,,0.00,VWS V14.00,2013-10-03 14:18:00,
2013-10-03 10:23:00,76.4,71.9,30.11,NE,54,1.0,2.0,86,0.00,,,0.00,VWS V14.00,2013-10-03 14:23:00,
2013-10-03 10:28:00,77.1,72.6,30.11,NE,53,0.0,2.0,86,0.00,,,0.00,VWS V14.00,2013-10-03 14:28:00,
2013-10-03 10:33:00,77.7,72.5,30.11,NE,53,0.0,0.0,84,0.00,,,0.00,VWS V14.00,2013-10-03 14:33:00,
2013-10-03 10:38:00,78.3,72.4,30.11,SSW,200,0.0,3.0,82,0.00,,,0.00,VWS V14.00,2013-10-03 14:38:00,
2013-10-03 10:43:00,78.7,72.4,30.11,East,100,1.0,2.0,81,0.00,,,0.00,VWS V14.00,2013-10-03 14:43:00,
2013-10-03 10:48:00,78.9,72.6,30.11,NE,56,1.0,2.0,81,0.00,,,0.00,VWS V14.00,2013-10-03 14:48:00,
2013-10-03 10:53:00,79.1,72.0,30.11,ENE,63,1.0,4.0,79,0.00,,,0.00,VWS V14.00,2013-10-03 14:53:00,
2013-10-03 10:58:00,79.3,71.8,30.11,ENE,63,0.0,4.0,78,0.00,,,0.00,VWS V14.00,2013-10-03 14:58:00,
2013-10-03 11:03:00,79.6,71.8,30.11,ENE,63,1.0,2.0,77,0.00,,,0.00,VWS V14.00,2013-10-03 15:03:00,
2013-10-03 11:08:00,80.0,70.2,30.11,SE,146,0.0,4.0,72,0.00,,,0.00,VWS V14.00,2013-10-03 15:08:00,
2013-10-03 11:14:00,80.5,70.7,30.11,SSW,194,0.0,1.0,72,0.00,,,0.00,VWS V14.00,2013-10-03 15:14:00,
2013-10-03 11:19:00,81.1,70.8,30.11,East,89,0.0,2.0,71,0.00,,,0.00,VWS V14.00,2013-10-03 15:19:00,
2013-10-03 11:24:00,81.4,71.9,30.11,ENE,74,2.0,2.0,73,0.00,,,0.00,VWS V14.00,2013-10-03 15:24:00,
2013-10-03 11:29:00,81.5,72.0,30.11,NE,51,2.0,4.0,73,0.00,,,0.00,VWS V14.00,2013-10-03 15:29:00,
2013-10-03 11:34:00,81.3,71.0,30.11,ENE,64,0.0,4.0,71,0.00,,,0.00,VWS V14.00,2013-10-03 15:34:00,
2013-10-03 11:39:00,81.7,71.4,30.11,ESE,103,0.0,4.0,71,0.00,,,0.00,VWS V14.00,2013-10-03 15:39:00,
2013-10-03 11:44:00,82.2,71.9,30.11,ESE,103,0.0,1.0,71,0.00,,,0.00,VWS V14.00,2013-10-03 15:44:00,
2013-10-03 11:49:00,82.7,71.9,30.10,ESE,103,0.0,1.0,70,0.00,,,0.00,VWS V14.00,2013-10-03 15:49:00,
2013-10-03 11:54:00,83.2,70.2,30.11,SE,138,0.0,2.0,65,0.00,,,0.00,VWS V14.00,2013-10-03 15:54:00,
2013-10-03 11:59:00,83.6,71.9,30.10,SE,137,0.0,2.0,68,0.00,,,0.00,VWS V14.00,2013-10-03 15:59:00,
2013-10-03 12:05:00,84.0,71.4,30.10,SE,137,1.0,1.0,66,0.00,,,0.00,VWS V14.00,2013-10-03 16:05:00,
2013-10-03 12:10:00,84.2,71.2,30.10,SE,142,1.0,2.0,65,0.00,,,0.00,VWS V14.00,2013-10-03 16:10:00,
2013-10-03 12:15:00,84.3,72.2,30.10,NNW,338,0.0,2.0,67,0.00,,,0.00,VWS V14.00,2013-10-03 16:15:00,
2013-10-03 12:20:00,84.4,70.4,30.10,WSW,249,0.0,2.0,63,0.00,,,0.00,VWS V14.00,2013-10-03 16:20:00,
2013-10-03 12:25:00,84.3,70.3,30.10,WSW,249,0.0,1.0,63,0.00,,,0.00,VWS V14.00,2013-10-03 16:25:00,
2013-10-03 12:30:00,84.3,70.3,30.10,WSW,249,0.0,1.0,63,0.00,,,0.00,VWS V14.00,2013-10-03 16:30:00,
2013-10-03 12:35:00,83.9,70.0,30.10,SSE,148,1.0,3.0,63,0.00,,,0.00,VWS V14.00,2013-10-03 16:35:00,
2013-10-03 12:40:00,83.1,68.7,30.10,East,101,1.0,3.0,62,0.00,,,0.00,VWS V14.00,2013-10-03 16:40:00,
2013-10-03 12:45:00,82.5,71.3,30.10,ESE,121,0.0,3.0,69,0.00,,,0.00,VWS V14.00,2013-10-03 16:45:00,
2013-10-03 12:50:00,82.4,70.3,30.09,SW,217,1.0,3.0,67,0.00,,,0.00,VWS V14.00,2013-10-03 16:50:00,
2013-10-03 12:55:00,82.3,72.0,30.09,SW,236,0.0,2.0,71,0.00,,,0.00,VWS V14.00,2013-10-03 16:55:00,
2013-10-03 13:01:00,82.2,71.0,30.09,SW,217,0.0,2.0,69,0.00,,,0.00,VWS V14.00,2013-10-03 17:01:00,
2013-10-03 13:06:00,82.1,70.1,30.09,South,169,1.0,3.0,67,0.00,,,0.00,VWS V14.00,2013-10-03 17:06:00,
2013-10-03 13:11:00,82.1,71.3,30.09,WNW,288,0.0,4.0,70,0.00,,,0.00,VWS V14.00,2013-10-03 17:11:00,
2013-10-03 13:16:00,82.1,68.7,30.08,SE,125,2.0,3.0,64,0.00,,,0.00,VWS V14.00,2013-10-03 17:16:00,
2013-10-03 13:21:00,82.5,69.6,30.09,SSE,163,0.0,3.0,65,0.00,,,0.00,VWS V14.00,2013-10-03 17:21:00,
2013-10-03 13:26:00,83.1,69.7,30.08,SSW,208,1.0,2.0,64,0.00,,,0.00,VWS V14.00,2013-10-03 17:26:00,
2013-10-03 13:31:00,83.2,69.8,30.08,NW,311,2.0,5.0,64,0.00,,,0.00,VWS V14.00,2013-10-03 17:31:00,
2013-10-03 13:36:00,83.0,69.6,30.08,West,272,0.0,4.0,64,0.00,,,0.00,VWS V14.00,2013-10-03 17:36:00,
2013-10-03 13:41:00,82.7,70.6,30.08,SW,220,2.0,2.0,67,0.00,,,0.00,VWS V14.00,2013-10-03 17:41:00,
2013-10-03 13:46:00,82.4,70.8,30.08,SW,225,0.0,3.0,68,0.00,,,0.00,VWS V14.00,2013-10-03 17:46:00,
2013-10-03 13:51:00,82.3,70.7,30.08,West,263,0.0,0.0,68,0.00,,,0.00,VWS V14.00,2013-10-03 17:51:00,
2013-10-03 13:56:00,82.4,70.8,30.08,ESE,119,2.0,4.0,68,0.00,,,0.00,VWS V14.00,2013-10-03 17:56:00,
2013-10-03 14:01:00,82.3,70.7,30.08,SW,223,1.0,1.0,68,0.00,,,0.00,VWS V14.00,2013-10-03 18:01:00,
2013-10-03 14:07:00,82.7,71.5,30.08,WSW,250,3.0,5.0,69,0.00,,,0.00,VWS V14.00,2013-10-03 18:07:00,
2013-10-03 14:12:00,83.2,70.7,30.08,WNW,297,0.0,4.0,66,0.00,,,0.00,VWS V14.00,2013-10-03 18:12:00,
2013-10-03 14:17:00,83.7,70.2,30.07,ESE,107,1.0,4.0,64,0.00,,,0.00,VWS V14.00,2013-10-03 18:17:00,
2013-10-03 14:22:00,83.8,70.8,30.07,WNW,288,1.0,2.0,65,0.00,,,0.00,VWS V14.00,2013-10-03 18:22:00,
2013-10-03 14:27:00,84.0,71.4,30.08,WNW,303,3.0,5.0,66,0.00,,,0.00,VWS V14.00,2013-10-03 18:27:00,
2013-10-03 14:32:00,84.1,72.0,30.07,WSW,238,0.0,3.0,67,0.00,,,0.00,VWS V14.00,2013-10-03 18:32:00,
2013-10-03 14:37:00,84.0,71.9,30.07,West,278,0.0,8.0,67,0.00,,,0.00,VWS V14.00,2013-10-03 18:37:00,
2013-10-03 14:42:00,84.2,71.6,30.07,SE,133,0.0,2.0,66,0.00,,,0.00,VWS V14.00,2013-10-03 18:42:00,
2013-10-03 14:47:00,83.6,70.6,30.07,East,96,0.0,3.0,65,0.00,,,0.00,VWS V14.00,2013-10-03 18:47:00,
2013-10-03 14:52:00,83.4,71.7,30.07,ESE,105,0.0,1.0,68,0.00,,,0.00,VWS V14.00,2013-10-03 18:52:00,
2013-10-03 14:57:00,83.4,69.9,30.07,SSW,207,2.0,7.0,64,0.00,,,0.00,VWS V14.00,2013-10-03 18:57:00,
2013-10-03 15:03:00,83.5,71.4,30.07,West,266,1.0,2.0,67,0.00,,,0.00,VWS V14.00,2013-10-03 19:03:00,
2013-10-03 15:08:00,83.4,71.3,30.07,WNW,285,0.0,3.0,67,0.00,,,0.00,VWS V14.00,2013-10-03 19:08:00,
2013-10-03 15:13:00,83.7,71.6,30.07,WSW,240,0.0,2.0,67,0.00,,,0.00,VWS V14.00,2013-10-03 19:13:00,
2013-10-03 15:18:00,84.4,71.8,30.06,WSW,250,0.0,3.0,66,0.00,,,0.00,VWS V14.00,2013-10-03 19:18:00,
2013-10-03 15:23:00,84.8,71.3,30.06,WSW,254,1.0,3.0,64,0.00,,,0.00,VWS V14.00,2013-10-03 19:23:00,
2013-10-03 15:28:00,84.2,71.6,30.06,SE,130,1.0,6.0,66,0.00,,,0.00,VWS V14.00,2013-10-03 19:28:00,
2013-10-03 15:33:00,83.4,70.4,30.06,NE,54,2.0,7.0,65,0.00,,,0.00,VWS V14.00,2013-10-03 19:33:00,
2013-10-03 15:38:00,83.4,71.3,30.06,South,174,1.0,7.0,67,0.00,,,0.00,VWS V14.00,2013-10-03 19:38:00,
2013-10-03 15:43:00,82.9,70.8,30.06,ESE,118,0.0,1.0,67,0.00,,,0.00,VWS V14.00,2013-10-03 19:43:00,
2013-10-03 15:48:00,82.9,71.3,30.06,ESE,102,0.0,5.0,68,0.00,,,0.00,VWS V14.00,2013-10-03 19:48:00,
2013-10-03 15:53:00,83.3,71.2,30.06,East,93,3.0,5.0,67,0.00,,,0.00,VWS V14.00,2013-10-03 19:53:00,
2013-10-03 15:58:00,83.0,71.4,30.06,SE,135,0.0,5.0,68,0.00,,,0.00,VWS V14.00,2013-10-03 19:58:00,
2013-10-03 16:04:00,83.0,70.5,30.06,SE,130,2.0,5.0,66,0.00,,,0.00,VWS V14.00,2013-10-03 20:04:00,
2013-10-03 16:09:00,82.8,71.2,30.06,SW,230,1.0,5.0,68,0.00,,,0.00,VWS V14.00,2013-10-03 20:09:00,
2013-10-03 16:14:00,82.5,70.9,30.06,South,175,0.0,2.0,68,0.00,,,0.00,VWS V14.00,2013-10-03 20:14:00,
2013-10-03 16:19:00,82.0,71.3,30.06,SE,124,0.0,2.0,70,0.00,,,0.00,VWS V14.00,2013-10-03 20:19:00,
2013-10-03 16:24:00,81.7,70.6,30.06,SE,126,2.0,4.0,69,0.00,,,0.00,VWS V14.00,2013-10-03 20:24:00,
2013-10-03 16:29:00,81.4,70.3,30.06,East,98,2.0,4.0,69,0.00,,,0.00,VWS V14.00,2013-10-03 20:29:00,
2013-10-03 16:34:00,81.1,70.8,30.06,SSE,153,0.0,3.0,71,0.00,,,0.00,VWS V14.00,2013-10-03 20:34:00,
2013-10-03 16:39:00,80.9,70.6,30.06,SSW,207,1.0,3.0,71,0.00,,,0.00,VWS V14.00,2013-10-03 20:39:00,
2013-10-03 16:44:00,80.7,70.8,30.06,ESE,117,0.0,2.0,72,0.00,,,0.00,VWS V14.00,2013-10-03 20:44:00,
2013-10-03 16:49:00,80.6,71.2,30.06,SE,130,0.0,3.0,73,0.00,,,0.00,VWS V14.00,2013-10-03 20:49:00,
2013-10-03 16:54:00,80.6,71.2,30.06,SE,130,0.0,1.0,73,0.00,,,0.00,VWS V14.00,2013-10-03 20:54:00,
2013-10-03 17:00:00,80.7,71.2,30.06,SE,130,0.0,1.0,73,0.00,,,0.00,VWS V14.00,2013-10-03 21:00:00,
2013-10-03 17:05:00,80.8,71.7,30.06,SE,130,0.0,1.0,74,0.00,,,0.00,VWS V14.00,2013-10-03 21:05:00,
2013-10-03 17:10:00,80.8,71.3,30.06,SW,232,0.0,3.0,73,0.00,,,0.00,VWS V14.00,2013-10-03 21:10:00,
2013-10-03 17:15:00,80.7,71.7,30.06,SW,232,0.0,0.0,74,0.00,,,0.00,VWS V14.00,2013-10-03 21:15:00,
2013-10-03 17:20:00,80.6,71.9,30.06,SW,232,1.0,1.0,75,0.00,,,0.00,VWS V14.00,2013-10-03 21:20:00,
2013-10-03 17:25:00,80.5,72.2,30.06,SW,227,2.0,3.0,76,0.00,,,0.00,VWS V14.00,2013-10-03 21:25:00,
2013-10-03 17:30:00,80.4,71.8,30.06,SSW,204,0.0,3.0,75,0.00,,,0.00,VWS V14.00,2013-10-03 21:30:00,
2013-10-03 17:35:00,80.4,72.2,30.06,SSW,203,1.0,2.0,76,0.00,,,0.00,VWS V14.00,2013-10-03 21:35:00,
2013-10-03 17:40:00,80.1,72.2,30.06,SSW,203,0.0,2.0,77,0.00,,,0.00,VWS V14.00,2013-10-03 21:40:00,
2013-10-03 17:45:00,79.8,72.3,30.06,SSW,204,0.0,0.0,78,0.00,,,0.00,VWS V14.00,2013-10-03 21:45:00,
2013-10-03 17:50:00,79.7,73.0,30.06,SSW,204,0.0,0.0,80,0.00,,,0.00,VWS V14.00,2013-10-03 21:50:00,
2013-10-03 17:55:00,79.6,72.9,30.06,SSW,204,0.0,0.0,80,0.00,,,0.00,VWS V14.00,2013-10-03 21:55:00,
2013-10-03 18:01:00,79.4,72.7,30.06,SSW,203,0.0,0.0,80,0.00,,,0.00,VWS V14.00,2013-10-03 22:01:00,
2013-10-03 18:06:00,79.2,72.9,30.06,SSW,204,0.0,1.0,81,0.00,,,0.00,VWS V14.00,2013-10-03 22:06:00,
2013-10-03 18:11:00,79.0,73.0,30.06,SSW,204,0.0,1.0,82,0.00,,,0.00,VWS V14.00,2013-10-03 22:11:00,
2013-10-03 18:16:00,78.8,72.5,30.06,SSW,204,0.0,0.0,81,0.00,,,0.00,VWS V14.00,2013-10-03 22:16:00,
2013-10-03 18:21:00,78.7,72.8,30.06,SSW,203,0.0,0.0,82,0.00,,,0.00,VWS V14.00,2013-10-03 22:21:00,
2013-10-03 18:26:00,78.5,72.9,30.06,SSW,203,0.0,0.0,83,0.00,,,0.00,VWS V14.00,2013-10-03 22:26:00,
2013-10-03 18:31:00,78.3,72.7,30.06,SSW,203,0.0,0.0,83,0.00,,,0.00,VWS V14.00,2013-10-03 22:31:00,
2013-10-03 18:36:00,78.1,72.5,30.06,SSW,203,0.0,0.0,83,0.00,,,0.00,VWS V14.00,2013-10-03 22:36:00,
2013-10-03 18:40:00,77.8,72.6,30.07,SSW,203,0.0,0.0,84,0.00,,,0.00,VWS V14.00,2013-10-03 22:40:00,
2013-10-03 18:41:00,77.8,72.6,30.07,SSW,203,0.0,0.0,84,0.00,,,0.00,VWS V14.00,2013-10-03 22:41:00,
2013-10-03 18:46:00,77.8,72.6,30.07,SSW,203,0.0,0.0,84,0.00,,,0.00,VWS V14.00,2013-10-03 22:46:00,
2013-10-03 18:51:00,77.0,72.5,30.07,SSW,204,0.0,0.0,86,0.00,,,0.00,VWS V14.00,2013-10-03 22:51:00,
2013-10-03 18:56:00,76.5,72.3,30.06,SSW,204,0.0,0.0,87,0.00,,,0.00,VWS V14.00,2013-10-03 22:56:00,
2013-10-03 19:01:00,76.0,72.2,30.06,SSW,204,0.0,0.0,88,0.00,,,0.00,VWS V14.00,2013-10-03 23:01:00,
2013-10-03 19:06:00,75.7,72.2,30.06,SSW,204,0.0,0.0,89,0.00,,,0.00,VWS V14.00,2013-10-03 23:06:00,
2013-10-03 19:12:00,75.5,72.0,30.06,SSW,204,0.0,0.0,89,0.00,,,0.00,VWS V14.00,2013-10-03 23:12:00,
2013-10-03 19:17:00,75.3,71.8,30.06,SSW,204,0.0,0.0,89,0.00,,,0.00,VWS V14.00,2013-10-03 23:17:00,
2013-10-03 19:22:00,74.8,71.7,30.07,SSW,204,0.0,0.0,90,0.00,,,0.00,VWS V14.00,2013-10-03 23:22:00,
2013-10-03 19:27:00,74.4,71.6,30.07,SSW,204,0.0,0.0,91,0.00,,,0.00,VWS V14.00,2013-10-03 23:27:00,
2013-10-03 19:32:00,74.1,71.3,30.07,SSW,203,0.0,0.0,91,0.00,,,0.00,VWS V14.00,2013-10-03 23:32:00,
2013-10-03 19:37:00,73.9,71.1,30.07,SSW,203,0.0,0.0,91,0.00,,,0.00,VWS V14.00,2013-10-03 23:37:00,
2013-10-03 19:42:00,73.6,71.1,30.07,SSW,204,0.0,0.0,92,0.00,,,0.00,VWS V14.00,2013-10-03 23:42:00,
2013-10-03 19:47:00,73.2,70.7,30.07,SSW,204,0.0,0.0,92,0.00,,,0.00,VWS V14.00,2013-10-03 23:47:00,
2013-10-03 19:52:00,73.0,70.9,30.07,SSW,203,0.0,0.0,93,0.00,,,0.00,VWS V14.00,2013-10-03 23:52:00,
2013-10-03 19:57:00,72.7,70.2,30.07,SSW,203,0.0,0.0,92,0.00,,,0.00,VWS V14.00,2013-10-03 23:57:00,
2013-10-03 20:02:00,72.5,70.4,30.07,SSW,204,0.0,0.0,93,0.00,,,0.00,VWS V14.00,2013-10-04 00:02:00,
2013-10-03 20:08:00,72.3,70.2,30.07,SSW,204,0.0,0.0,93,0.00,,,0.00,VWS V14.00,2013-10-04 00:08:00,
2013-10-03 20:13:00,72.0,69.9,30.07,SSW,204,0.0,0.0,93,0.00,,,0.00,VWS V14.00,2013-10-04 00:13:00,
2013-10-03 20:18:00,71.8,69.7,30.07,SSW,204,0.0,0.0,93,0.00,,,0.00,VWS V14.00,2013-10-04 00:18:00,
2013-10-03 20:23:00,71.6,69.8,30.07,SSW,204,0.0,0.0,94,0.00,,,0.00,VWS V14.00,2013-10-04 00:23:00,
2013-10-03 20:28:00,71.4,69.6,30.08,SSW,204,0.0,0.0,94,0.00,,,0.00,VWS V14.00,2013-10-04 00:28:00,
2013-10-03 20:33:00,71.2,69.4,30.08,SSW,204,0.0,0.0,94,0.00,,,0.00,VWS V14.00,2013-10-04 00:33:00,
2013-10-03 20:38:00,71.1,69.6,30.08,SSW,204,0.0,0.0,95,0.00,,,0.00,VWS V14.00,2013-10-04 00:38:00,
2013-10-03 20:43:00,71.0,69.5,30.08,SSW,203,0.0,0.0,95,0.00,,,0.00,VWS V14.00,2013-10-04 00:43:00,
2013-10-03 20:48:00,70.8,69.3,30.08,SSW,203,0.0,0.0,95,0.00,,,0.00,VWS V14.00,2013-10-04 00:48:00,
2013-10-03 20:53:00,70.8,69.3,30.08,SSW,204,0.0,0.0,95,0.00,,,0.00,VWS V14.00,2013-10-04 00:53:00,
2013-10-03 20:58:00,70.7,69.2,30.08,SSW,204,0.0,0.0,95,0.00,,,0.00,VWS V14.00,2013-10-04 00:58:00,
2013-10-03 21:04:00,70.7,69.2,30.08,SSW,204,0.0,0.0,95,0.00,,,0.00,VWS V14.00,2013-10-04 01:04:00,
2013-10-03 21:09:00,70.6,69.4,30.08,SSW,204,0.0,0.0,96,0.00,,,0.00,VWS V14.00,2013-10-04 01:09:00,
2013-10-03 21:14:00,70.7,69.5,30.08,SSW,204,0.0,0.0,96,0.00,,,0.00,VWS V14.00,2013-10-04 01:14:00,
2013-10-03 21:19:00,70.7,69.5,30.08,SSW,204,0.0,0.0,96,0.00,,,0.00,VWS V14.00,2013-10-04 01:19:00,
2013-10-03 21:24:00,70.7,69.5,30.08,SSW,204,0.0,0.0,96,0.00,,,0.00,VWS V14.00,2013-10-04 01:24:00,
2013-10-03 21:29:00,70.8,69.6,30.08,SSW,204,0.0,0.0,96,0.00,,,0.00,VWS V14.00,2013-10-04 01:29:00,
2013-10-03 21:34:00,70.8,69.6,30.08,SSW,203,0.0,0.0,96,0.00,,,0.00,VWS V14.00,2013-10-04 01:34:00,
2013-10-03 21:40:00,70.8,69.6,30.08,SSW,204,0.0,0.0,96,0.00,,,0.00,VWS V14.00,2013-10-04 01:40:00,
2013-10-03 21:45:00,70.8,69.6,30.09,SSW,204,0.0,0.0,96,0.00,,,0.00,VWS V14.00,2013-10-04 01:45:00,
2013-10-03 21:50:00,70.8,69.6,30.08,SSW,204,0.0,0.0,96,0.00,,,0.00,VWS V14.00,2013-10-04 01:50:00,
2013-10-03 21:55:00,70.8,69.6,30.08,SSW,204,0.0,0.0,96,0.00,,,0.00,VWS V14.00,2013-10-04 01:55:00,
2013-10-03 22:00:00,70.8,69.6,30.09,SSW,203,0.0,0.0,96,0.00,,,0.00,VWS V14.00,2013-10-04 02:00:00,
2013-10-03 22:05:00,70.7,69.5,30.08,SSW,204,0.0,0.0,96,0.00,,,0.00,VWS V14.00,2013-10-04 02:05:00,
2013-10-03 22:10:00,70.7,69.5,30.09,SSW,204,0.0,0.0,96,0.00,,,0.00,VWS V14.00,2013-10-04 02:10:00,
2013-10-03 22:15:00,70.6,69.4,30.08,SSW,204,0.0,0.0,96,0.00,,,0.00,VWS V14.00,2013-10-04 02:15:00,
2013-10-03 22:20:00,70.6,69.4,30.08,SSW,204,0.0,0.0,96,0.00,,,0.00,VWS V14.00,2013-10-04 02:20:00,
2013-10-03 22:26:00,70.6,69.4,30.08,SSW,204,0.0,0.0,96,0.00,,,0.00,VWS V14.00,2013-10-04 02:26:00,
2013-10-03 22:31:00,70.5,69.3,30.08,SSW,203,0.0,0.0,96,0.00,,,0.00,VWS V14.00,2013-10-04 02:31:00,
2013-10-03 22:36:00,70.5,69.3,30.09,SSW,204,0.0,0.0,96,0.00,,,0.00,VWS V14.00,2013-10-04 02:36:00,
2013-10-03 22:41:00,70.5,69.3,30.09,SSW,204,0.0,0.0,96,0.00,,,0.00,VWS V14.00,2013-10-04 02:41:00,
2013-10-03 22:46:00,70.5,69.3,30.09,SSW,204,0.0,0.0,96,0.00,,,0.00,VWS V14.00,2013-10-04 02:46:00,
2013-10-03 22:51:00,70.5,69.3,30.09,SSW,203,0.0,0.0,96,0.00,,,0.00,VWS V14.00,2013-10-04 02:51:00,
2013-10-03 22:56:00,70.4,69.2,30.09,SSW,203,0.0,0.0,96,0.00,,,0.00,VWS V14.00,2013-10-04 02:56:00,
2013-10-03 23:01:00,70.3,69.1,30.09,SSW,203,0.0,0.0,96,0.00,,,0.00,VWS V14.00,2013-10-04 03:01:00,
2013-10-03 23:06:00,70.2,69.0,30.09,SSW,204,0.0,0.0,96,0.00,,,0.00,VWS V14.00,2013-10-04 03:06:00,
2013-10-03 23:11:00,70.1,68.9,30.08,SSW,204,0.0,0.0,96,0.00,,,0.00,VWS V14.00,2013-10-04 03:11:00,
2013-10-03 23:16:00,70.1,68.9,30.09,SSW,203,0.0,0.0,96,0.00,,,0.00,VWS V14.00,2013-10-04 03:16:00,
2013-10-03 23:21:00,70.0,68.8,30.09,SSW,204,0.0,0.0,96,0.00,,,0.00,VWS V14.00,2013-10-04 03:21:00,
2013-10-03 23:27:00,69.9,68.7,30.09,SSW,204,0.0,0.0,96,0.00,,,0.00,VWS V14.00,2013-10-04 03:27:00,
2013-10-03 23:32:00,69.9,68.7,30.08,SSW,203,0.0,0.0,96,0.00,,,0.00,VWS V14.00,2013-10-04 03:32:00,
2013-10-03 23:37:00,69.9,68.7,30.08,SSW,204,0.0,0.0,96,0.00,,,0.00,VWS V14.00,2013-10-04 03:37:00,
2013-10-03 23:42:00,69.8,68.6,30.08,SSW,204,0.0,0.0,96,0.00,,,0.00,VWS V14.00,2013-10-04 03:42:00,
2013-10-03 23:47:00,69.8,68.9,30.08,SSW,204,0.0,0.0,97,0.00,,,0.00,VWS V14.00,2013-10-04 03:47:00,
2013-10-03 23:52:00,69.8,68.9,30.08,SSW,204,0.0,0.0,97,0.00,,,0.00,VWS V14.00,2013-10-04 03:52:00,
2013-10-03 23:57:00,69.7,68.8,30.08,SSW,204,0.0,0.0,97,0.00,,,0.00,VWS V14.00,2013-10-04 03:57:00,